Torna al catalogo

COSMOS 1275 DEB

AttivoPO
NORAD 18639·DEBRIS·🇷🇺 Russia

Lanciato Jun 4, 1981 da Plesetsk Cosmodrome

Loading…

Prossimi Passaggi (prossime 24 ore)

TLE

AggiornatoSource: Space-Track

Epoca: Sep 14, 2026, 17:00 UTC

1 18639U 81053LZ  26257.70850113  .00000894  00000-0  94673-3 0  9994
2 18639  83.0564  74.6393 0141237 265.1060 214.9555 13.69291005 50535

Traccia COSMOS 1275 DEB in tempo reale con AllMySat

Download on the App Store